Starlink 11249

operational
NORAD ID: 60728 Int'l Des: 2024-152 Owner: SPXS Country: US Constellation: starlink
LEOCIRCULAR

About Starlink 11249

Description loading...

Live Position

Loading 3D Globe...

Upcoming Passes

Altitude History

Altitude vs Time

uPlot chart will show altitude changes over time

Two-Line Element Set

1 60728U 24152J 25351.21701148 -.00000541 00000-0 38636-6 0 9990
2 60728 53.1580 162.6826 0000820 78.1441 281.9669 15.69705896 75888
Epoch: Dec 17, 2025 • Age: 10 hours

Current Status

Altitude 364.9 km
Velocity 7.69 km/s
Sub-Earth Point -17.81°S, 39.45°E
Launch Date Aug 28, 2024
Age 1.3 years
Type internet

Technical Details

Classification Payload
Mass 960.00 kg
Dry Mass 910.00 kg
Total Mass 960.00 kg
Length 0.30 m
Diameter 4.10 m
Span 29.00 m
Shape Box + pan
Manufacturer SPXS
Bus Type Starlink V2MD
Phase Status In Orbit
Owner/State SPXS/US

Large Constellations

Loading constellations...